FW7173 Weather Reports


time (UTC)temp
F
wind
direction
speed
knots
gust
knots
rain 1hr
in
rain 24hr
in
rain mn
in
humidity
%
barometer
mb
20260506014032 72 149 1.7 9.6 0.00 0.05 0.05 43 1010.8
20260506013531 72 117 1.7 9.6 0.00 0.05 0.05 43 1010.8
20260506013026 72 146 3.5 7.0 0.00 0.05 0.05 43 1010.5
20260506012523 72 98 0.0 9.6 0.00 0.05 0.05 43 1010.7
20260506012020 73 113 0.9 3.5 0.00 0.05 0.05 43 1010.6
20260506011518 73 154 2.6 4.3 0.00 0.05 0.05 44 1010.5
20260506011014 73 121 2.6 6.1 0.00 0.05 0.05 43 1010.4
20260506010513 73 165 3.5 5.2 0.00 0.05 0.05 43 1010.4
20260506010009 73 193 1.7 11.3 0.00 0.05 0.05 43 1010.4
20260506005507 73 141 4.3 6.1 0.00 0.05 0.05 43 1010.2
20260506005002 73 176 1.7 11.3 0.00 0.05 0.05 43 1010.2
20260506004500 73 129 1.7 12.2 0.00 0.05 0.05 43 1010.4
20260506003955 73 251 0.9 5.2 0.00 0.05 0.05 42 1010.0
20260506003452 74 89 2.6 10.4 0.00 0.05 0.05 41 1010.0
20260506002948 74 78 4.3 5.2 0.00 0.05 0.05 40 1010.0
20260506002445 74 138 1.7 7.8 0.00 0.05 0.05 40 1009.9
20260506001940 74 117 2.6 4.3 0.00 0.05 0.05 39 1009.9
20260506001437 74 144 4.3 6.1 0.00 0.05 0.05 38 1009.8
20260506000935 75 140 3.5 4.3 0.00 0.05 0.05 37 1009.7
20260506000432 75 175 3.5 8.7 0.00 0.05 0.05 37 1009.9
20260505235929 75 142 4.3 7.0 0.00 0.05 0.05 37 1009.5
20260505235427 75 245 3.5 6.1 0.00 0.05 0.05 37 1009.5
20260505234923 75 145 2.6 4.3 0.00 0.05 0.05 36 1009.8
20260505234421 75 190 3.5 5.2 0.00 0.05 0.05 36 1009.5
20260505233917 76 201 3.5 12.2 0.00 0.05 0.05 36 1009.7
20260505233415 76 151 1.7 6.1 0.00 0.05 0.05 35 1009.8
20260505232913 76 167 7.8 11.3 0.00 0.05 0.05 35 1009.4
20260505232410 77 180 1.7 7.8 0.00 0.05 0.05 34 1009.5
20260505231907 77 172 5.2 9.6 0.00 0.05 0.05 34 1009.5
20260505231405 77 181 1.7 10.4 0.00 0.05 0.05 33 1009.3
20260505230903 77 216 7.8 7.8 0.00 0.05 0.05 33 1009.5
20260505230400 77 143 4.3 9.6 0.00 0.05 0.05 33 1009.5
20260505225856 77 150 4.3 4.3 0.00 0.05 0.05 33 1009.4
20260505225354 78 257 4.3 12.2 0.00 0.05 0.05 32 1009.2
20260505224849 78 53 1.7 5.2 0.00 0.05 0.05 31 1009.4
20260505224346 78 236 1.7 9.6 0.00 0.05 0.05 31 1009.4
20260505223843 78 150 10.4 14.8 0.00 0.05 0.05 31 1009.8
20260505223340 78 172 1.7 13.0 0.00 0.05 0.05 31 1009.2
20260505222836 78 163 4.3 10.4 0.00 0.05 0.05 32 1009.3
20260505222332 78 324 1.7 9.6 0.00 0.05 0.05 32 1009.1
20260505221830 78 164 8.7 8.7 0.00 0.05 0.05 32 1009.2
20260505221326 78 181 1.7 10.4 0.00 0.05 0.05 31 1009.3
20260505220823 78 214 3.5 7.8 0.00 0.05 0.05 31 1009.1
20260505220320 78 118 6.1 7.8 0.00 0.05 0.05 31 1009.2
20260505215818 79 298 1.7 7.8 0.00 0.05 0.05 32 1009.2
20260505215316 78 165 6.1 7.8 0.00 0.05 0.05 31 1009.2
20260505214814 78 156 3.5 5.2 0.00 0.05 0.05 32 1009.4
20260505214311 78 177 7.8 9.6 0.00 0.05 0.05 31 1009.3
20260505213808 79 299 0.9 7.8 0.00 0.05 0.05 32 1009.3
20260505213306 78 144 10.4 11.3 0.00 0.05 0.05 32 1009.1
20260505212801 79 157 8.7 13.0 0.00 0.05 0.05 30 1009.3
20260505212259 79 183 6.1 14.8 0.00 0.05 0.05 30 1009.1
20260505211755 79 256 6.1 9.6 0.00 0.05 0.05 30 1009.0
20260505211253 79 240 7.0 9.6 0.00 0.05 0.05 30 1008.6
20260505210749 79 210 1.7 10.4 0.00 0.05 0.05 31 1008.9
20260505210246 79 167 5.2 8.7 0.00 0.05 0.05 30 1008.9
20260505205743 80 229 6.1 9.6 0.00 0.05 0.05 31 1009.1
20260505205242 80 240 1.7 16.5 0.00 0.05 0.05 30 1008.8
20260505204737 80 248 4.3 13.9 0.00 0.05 0.05 30 1009.0
20260505204236 80 164 7.0 14.8 0.00 0.05 0.05 29 1009.1
20260505203732 79 175 8.7 12.2 0.00 0.05 0.05 29 1008.9
20260505203229 80 145 10.4 17.4 0.00 0.05 0.05 28 1009.1
20260505202725 80 179 7.8 18.2 0.00 0.05 0.05 28 1009.1
20260505202221 80 256 6.1 10.4 0.00 0.05 0.05 28 1009.1
20260505201718 79 177 2.6 9.6 0.00 0.05 0.05 29 1008.9
20260505201216 79 168 7.0 14.8 0.00 0.05 0.05 28 1009.1
20260505200714 79 189 3.5 12.2 0.00 0.05 0.05 28 1009.1
20260505200211 80 194 5.2 13.9 0.00 0.05 0.05 27 1009.2
20260505195706 81 197 10.4 11.3 0.00 0.05 0.05 27 1009.2
20260505195204 81 242 2.6 13.0 0.00 0.05 0.05 28 1009.0
20260505194701 80 180 7.0 14.8 0.00 0.05 0.05 26 1008.9
20260505194157 81 176 6.1 19.1 0.00 0.05 0.05 27 1009.2
20260505193653 80 282 7.0 14.8 0.00 0.05 0.05 27 1009.1
20260505193151 80 176 11.3 13.0 0.00 0.05 0.05 26 1009.1
20260505192649 80 172 20.0 23.5 0.00 0.05 0.05 26 1009.4
20260505192146 80 164 8.7 15.6 0.00 0.05 0.05 26 1009.0
20260505191645 80 169 8.7 13.9 0.00 0.05 0.05 27 1009.3
20260505191143 81 161 11.3 14.8 0.00 0.05 0.05 27 1009.7
20260505190638 80 150 9.6 11.3 0.00 0.05 0.05 28 1009.3
20260505190138 80 166 6.1 11.3 0.00 0.05 0.05 28 1009.4
20260505185635 80 122 7.8 16.5 0.00 0.05 0.05 27 1009.5
20260505185131 81 249 5.2 20.0 0.00 0.05 0.05 27 1009.7
20260505184628 81 130 5.2 16.5 0.00 0.05 0.05 28 1009.7
20260505184125 81 51 3.5 7.0 0.00 0.05 0.05 29 1009.9
20260505183622 80 193 9.6 20.9 0.00 0.05 0.05 28 1009.5
20260505183119 81 174 19.1 21.7 0.00 0.05 0.05 28 1009.5
20260505182615 80 184 9.6 20.9 0.00 0.05 0.05 30 1009.8
20260505182112 81 173 7.0 16.5 0.00 0.05 0.05 30 1009.9
20260505181609 82 158 4.3 10.4 0.00 0.05 0.05 30 1009.9
20260505181106 80 203 1.7 6.1 0.00 0.05 0.05 31 1010.0
20260505180602 81 131 7.0 13.0 0.00 0.05 0.05 30 1009.9
20260505180100 80 205 5.2 9.6 0.00 0.05 0.05 32 1010.1
20260505175555 80 164 8.7 13.0 0.00 0.05 0.05 32 1010.3
20260505175052 80 219 7.8 14.8 0.00 0.05 0.05 34 1010.2
20260505174549 80 186 9.6 20.0 0.00 0.05 0.05 34 1010.2
20260505174045 80 182 9.6 10.4 0.00 0.05 0.05 35 1010.2
20260505173542 80 112 7.8 17.4 0.00 0.05 0.05 34 1010.3
20260505173039 81 188 7.0 11.3 0.00 0.05 0.05 33 1010.3
20260505172537 80 184 2.6 13.0 0.00 0.05 0.05 34 1010.4
20260505172033 80 159 7.8 9.6 0.00 0.05 0.05 34 1010.3
20260505171528 80 200 2.6 11.3 0.00 0.05 0.05 35 1010.3
20260505171025 80 146 7.8 13.0 0.00 0.05 0.05 35 1010.6
20260505170522 80 192 2.6 6.1 0.00 0.05 0.05 36 1010.4
20260505170018 80 229 8.7 10.4 0.00 0.05 0.05 35 1010.5
20260505165513 80 170 4.3 6.1 0.00 0.05 0.05 37 1010.6
20260505165009 79 183 3.5 9.6 0.00 0.05 0.05 37 1010.9
20260505164505 79 184 5.2 6.1 0.00 0.05 0.05 37 1010.8
20260505164004 79 165 5.2 11.3 0.00 0.05 0.05 36 1010.8
20260505163502 80 171 5.2 8.7 0.00 0.05 0.05 36 1010.9
20260505163003 79 282 4.3 6.1 0.00 0.05 0.05 37 1011.2
20260505162457 79 157 4.3 7.0 0.00 0.05 0.05 37 1011.1
20260505161953 79 138 2.6 7.8 0.00 0.05 0.05 37 1010.9
20260505161450 79 171 1.7 4.3 0.00 0.05 0.05 38 1011.0
20260505160948 79 309 3.5 4.3 0.00 0.05 0.05 38 1011.2
20260505160446 78 281 2.6 7.0 0.00 0.05 0.05 38 1011.2
20260505152922 75 216 4.3 8.7 0.00 0.05 0.05 42 1011.7
20260505152419 74 290 1.7 8.7 0.00 0.05 0.05 44 1011.7
20260505151919 74 159 4.3 9.6 0.00 0.05 0.05 43 1011.4
20260505151415 73 251 3.5 7.0 0.00 0.05 0.05 45 1011.5
20260505150913 73 191 5.2 11.3 0.00 0.05 0.05 45 1011.9
20260505150410 73 162 3.5 3.5 0.00 0.05 0.05 46 1011.7
20260505140340 67 21 0.9 5.2 0.00 0.05 0.05 56 1012.4
20260505130303 61 154 6.1 6.1 0.00 0.05 0.05 68 1012.4
20260505124754 60 170 3.5 7.0 0.00 0.05 0.05 69 1012.2
20260505124251 60 129 1.7 4.3 0.00 0.05 0.05 70 1012.2
20260505123746 60 144 2.6 3.5 0.00 0.05 0.05 74 1012.1
20260505123243 60 116 0.9 2.6 0.00 0.05 0.05 75 1012.3
20260505122740 59 131 2.6 3.5 0.00 0.05 0.05 72 1012.2
20260505122237 59 180 1.7 7.0 0.00 0.05 0.05 72 1012.1
20260505121733 59 197 0.9 4.3 0.00 0.05 0.05 75 1012.0
20260505121230 59 146 3.5 5.2 0.00 0.05 0.05 74 1011.9
20260505120726 58 153 0.9 6.1 0.00 0.05 0.05 75 1012.0
20260505120223 58 129 4.3 6.1 0.00 0.05 0.05 79 1012.1
20260505115721 57 157 4.3 4.3 0.00 0.05 0.05 81 1012.1
20260505115219 56 149 2.6 3.5 0.00 0.05 0.05 80 1011.7
20260505114716 56 155 2.6 3.5 0.00 0.05 0.05 87 1011.9
20260505114212 56 150 3.5 4.3 0.00 0.05 0.05 85 1011.9
20260505113709 54 154 2.6 4.3 0.00 0.05 0.05 91 1011.9
20260505113206 53 120 1.7 1.7 0.00 0.05 0.05 95 1012.0
20260505112702 53 134 2.6 3.5 0.00 0.05 0.05 96 1011.9
20260505112200 52 185 0.0 1.7 0.00 0.05 0.05 96 1012.1
20260505111659 52 169 0.9 1.7 0.00 0.05 0.05 96 1012.1
20260505111155 52 41 0.9 1.7 0.00 0.05 0.05 96 1012.2
20260505110651 52 66 0.9 1.7 0.00 0.05 0.05 96 1012.0
20260505110149 51 28 1.7 1.7 0.02 0.05 0.05 95 1012.0
20260505102125 52 121 1.7 1.7 0.00 0.04 0.04 94 1011.7
20260505101623 52 36 0.0 1.7 0.00 0.04 0.04 94 1011.8
20260505101119 52 69 1.7 2.6 0.00 0.04 0.04 94 1011.8
20260505100615 52 66 1.7 1.7 0.00 0.04 0.04 93 1011.7
20260505100113 52 56 1.7 2.6 0.02 0.04 0.04 92 1011.7
20260505095609 52 39 0.0 1.7 0.05 0.04 0.04 92 1011.6
20260505095105 52 137 1.7 2.6 0.02 0.04 0.04 91 1011.6
20260505094602 53 42 4.3 5.2 0.02 0.04 0.04 90 1011.9
20260505094058 52 26 1.7 3.5 0.00 0.03 0.03 90 1011.9
20260505093554 53 116 1.7 3.5 0.00 0.03 0.03 88 1011.7
20260505093052 53 60 0.0 1.7 0.05 0.03 0.03 85 1011.6
20260505092549 54 59 2.6 4.3 0.14 0.03 0.03 81 1011.5
20260505092048 55 4 0.9 1.7 0.09 0.02 0.02 77 1011.8
20260505091544 55 44 3.5 3.5 0.05 0.01 0.01 73 1011.6
20260505091043 55 55 1.7 3.5 0.00 0.00 0.00 72 1011.9
20260505090540 55 345 0.9 1.7 0.00 0.00 0.00 71 1011.8
20260505090038 56 184 0.9 1.7 0.00 0.00 0.00 69 1011.6
20260505085535 56 131 1.7 2.6 0.00 0.00 0.00 69 1011.4
20260505085033 56 176 1.7 1.7 0.00 0.00 0.00 69 1011.6
20260505084531 56 323 1.7 5.2 0.00 0.00 0.00 68 1011.8
20260505084029 56 48 6.1 6.1 0.00 0.00 0.00 68 1011.0
20260505083526 56 156 2.6 4.3 0.00 0.00 0.00 66 1011.0
20260505083023 56 167 1.7 1.7 0.00 0.00 0.00 66 1011.2
20260505082518 56 179 1.7 2.6 0.00 0.00 0.00 66 1011.2
20260505082015 56 163 1.7 3.5 0.00 0.00 0.00 66 1011.1
20260505081512 57 155 3.5 3.5 0.00 0.00 0.00 64 1011.1
20260505081009 57 169 1.7 2.6 0.00 0.00 0.00 63 1010.9
20260505080505 57 148 2.6 2.6 0.00 0.00 0.00 62 1010.9
20260505080001 58 165 1.7 2.6 0.00 0.00 0.00 61 1010.9
20260505075458 59 162 1.7 3.5 0.00 0.00 0.00 60 1011.2
20260505074954 58 168 2.6 5.2 0.00 0.00 0.00 60 1011.1
20260505074452 58 171 0.0 2.6 0.00 0.00 0.00 60 1011.2
20260505073949 57 168 0.9 1.7 0.00 0.00 0.00 61 1011.3
20260505073447 57 161 1.7 2.6 0.00 0.00 0.00 60 1011.0
20260505072944 58 151 2.6 2.6 0.00 0.00 0.00 60 1011.1
20260505072440 57 143 1.7 3.5 0.00 0.00 0.00 60 1010.9
20260505071936 58 151 2.6 3.5 0.00 0.00 0.00 59 1010.9
20260505071432 58 148 0.9 3.5 0.00 0.00 0.00 59 1011.1
20260505070930 58 157 2.6 3.5 0.00 0.00 0.00 59 1011.3
20260505070427 58 163 1.7 3.5 0.00 0.00 0.00 59 1011.2
20260505065922 58 145 0.9 1.7 0.00 0.00 0.00 58 1011.2
20260505065419 58 102 1.7 1.7 0.00 0.00 0.00 58 1011.2
20260505064916 58 310 0.0 1.7 0.00 0.00 0.00 58 1011.2
20260505064413 58 145 2.6 3.5 0.00 0.00 0.00 57 1011.1
20260505063911 59 123 1.7 2.6 0.00 0.00 0.00 57 1011.1
20260505063407 59 152 2.6 3.5 0.00 0.00 0.00 56 1011.0
20260505062904 59 129 1.7 3.5 0.00 0.00 0.00 56 1011.1
20260505062401 59 156 1.7 3.5 0.00 0.00 0.00 56 1011.1
20260505061858 59 169 1.7 3.5 0.00 0.00 0.00 57 1011.2
20260505061356 59 141 3.5 4.3 0.00 0.00 0.00 55 1011.3
20260505060853 59 146 0.0 6.1 0.00 0.00 0.00 55 1011.1
20260505060350 58 87 0.9 2.6 0.00 0.00 0.00 57 1011.2
20260505055846 59 110 0.9 4.3 0.00 0.00 0.00 55 1011.1
20260505055342 59 122 3.5 3.5 0.00 0.00 0.00 55 1011.1
20260505054839 59 75 0.0 3.5 0.00 0.00 0.00 55 1011.2
20260505054337 59 92 1.7 2.6 0.00 0.00 0.00 55 1011.0
20260505053835 59 121 2.6 4.3 0.00 0.00 0.00 55 1011.1
20260505053332 59 148 2.6 4.3 0.00 0.00 0.00 54 1011.2
20260505052828 59 120 2.6 3.5 0.00 0.00 0.00 54 1011.0
20260505052325 59 147 2.6 2.6 0.00 0.00 0.00 54 1011.2
20260505051822 59 98 1.7 3.5 0.00 0.00 0.00 54 1011.1
20260505051320 59 133 1.7 2.6 0.00 0.00 0.00 54 1011.3
20260505050818 59 115 1.7 3.5 0.00 0.00 0.00 53 1011.1
20260505050316 59 159 5.2 5.2 0.00 0.00 0.00 52 1011.2
20260505041746 57 95 1.7 3.5 0.00 0.00 0.00 57 1011.1
20260505041243 58 166 1.7 4.3 0.00 0.00 0.00 56 1011.1
20260505040740 59 152 3.5 3.5 0.00 0.00 0.00 55 1011.2
20260505040238 58 114 2.6 3.5 0.00 0.00 0.00 53 1010.9
20260505035735 58 125 3.5 3.5 0.00 0.00 0.00 53 1011.0
20260505035230 58 187 1.7 4.3 0.00 0.00 0.00 56 1011.1
20260505034727 58 101 2.6 2.6 0.00 0.00 0.00 55 1011.1
20260505034224 58 130 3.5 3.5 0.00 0.00 0.00 53 1011.2
20260505033721 59 119 2.6 4.3 0.00 0.00 0.00 51 1011.0
20260505033219 59 172 2.6 3.5 0.00 0.00 0.00 51 1011.1
20260505032716 59 151 1.7 4.3 0.00 0.00 0.00 50 1011.0
20260505032212 59 139 1.7 3.5 0.00 0.00 0.00 51 1011.2
20260505031710 60 106 1.7 3.5 0.00 0.00 0.00 51 1011.2
20260505031206 59 136 3.5 3.5 0.00 0.00 0.00 50 1011.2
20260505030703 59 142 1.7 2.6 0.00 0.00 0.00 53 1011.1
20260505030159 59 121 1.7 3.5 0.00 0.00 0.00 51 1011.2
20260505025655 59 129 2.6 3.5 0.00 0.00 0.00 50 1011.1
20260505025153 59 87 1.7 2.6 0.00 0.00 0.00 49 1011.2
20260505024651 59 122 2.6 4.3 0.00 0.00 0.00 49 1011.2
20260505024147 60 132 2.6 2.6 0.00 0.00 0.00 50 1011.3
20260505023645 60 146 2.6 2.6 0.00 0.00 0.00 51 1011.4
20260505023142 59 108 1.7 3.5 0.00 0.00 0.00 50 1011.5
20260505022640 59 173 0.0 3.5 0.00 0.00 0.00 51 1011.4
20260505022137 58 124 2.6 3.5 0.00 0.00 0.00 53 1011.5
20260505021633 58 111 2.6 3.5 0.00 0.00 0.00 52 1011.6
20260505021130 58 111 1.7 1.7 0.00 0.00 0.00 53 1011.6
20260505020626 57 160 1.7 3.5 0.00 0.00 0.00 57 1011.6
20260505020122 57 64 1.7 2.6 0.00 0.00 0.00 57 1011.6
20260505015619 57 57 1.7 1.7 0.00 0.00 0.00 57 1011.5
20260505015116 57 154 0.0 1.7 0.00 0.00 0.00 58 1011.3
20260505014613 57 135 0.0 1.7 0.00 0.00 0.00 55 1011.3